Miscellaneous Local Product
Issued by NWS Hastings, NE

Home | Current Version | Previous Version | Graphics & Text | Print | Product List | Glossary On
Versions: 1 2 3 4 5 6 7 8 9 10 11 12 13 14 15 16 17 18 19 20 21 22 23 24 25 26 27 28 29 30 31 32 33 34 35 36 37 38 39 40 41 42 43 44 45 46 47 48 49 50
343
AXUS43 KGID 072102
MISGRI

GID CWA HOURLY WEATHER ROUNDUP
NATIONAL WEATHER SERVICE HASTINGS NE
300 PM CST WED DEC 07 2016

NOTE: "FAIR" INDICATES FEW OR NO CLOUDS BELOW 12,000 FEET WITH NO
SIGNIFICANT WEATHER AND/OR OBSTRUCTIONS TO VISIBILITY.

...SOUTH CENTRAL NEBRASKA...

CITY           SKY/WX    TMP DP  RH WIND       PRES   REMARKS
GRAND ISLAND   SUNNY     22   2  42 NW15      30.33R WCI   9
HASTINGS       NOT AVBL
KEARNEY        SUNNY     25   1  36 NW15      30.33R WCI  12
ORD            NOT AVBL
YORK           SUNNY     23   5  46 NW18G25   30.33R WCI   9
AURORA         PTSUNNY   23   3  42 NW14G22   30.33R WCI  11
LEXINGTON      CLOUDY    23   2  41 NW16G23   30.32S WCI   9
HOLDREGE       PTSUNNY   22  10  59 NW8       30.32R WCI  13
HEBRON         MOSUNNY   26   6  43 NW13      30.34S WCI  15

...NEBRASKA PANHANDLE...

CITY           SKY/WX    TMP DP  RH WIND       PRES   REMARKS
CHADRON        SUNNY     12  -4  48 NW21G30   30.36R WCI  -7
ALLIANCE       MOSUNNY   15   1  53 NW16      30.28R WCI  -1
SCOTTSBLUFF    SUNNY     14   0  53 NW18G25   30.31S WCI  -3
SIDNEY         PTSUNNY   12   4  70 N18       30.27R WCI  -6

...WESTERN AND NORTH CENTRAL NEBRASKA...

CITY           SKY/WX    TMP DP  RH WIND       PRES   REMARKS
VALENTINE      SUNNY     16   0  49 NW21G31   30.33R WCI  -1
AINSWORTH      SUNNY     17   2  52 NW21G26   30.30S WCI   0
ONEILL         SUNNY     18   2  50 W20       30.32R WCI   2
BROKEN BOW     PTSUNNY   20   1  43 NW18G25   30.31R WCI   5
IMPERIAL       CLOUDY    16   8  71 NW15      30.32R WCI   1
NORTH PLATTE   CLOUDY    21   3  45 N15G22    30.32R WCI   8
MCCOOK         LGT SNOW  19  11  70 NW12      30.35R WCI   7

...EASTERN NEBRASKA...

CITY           SKY/WX    TMP DP  RH WIND       PRES   REMARKS
NORFOLK        NOT AVBL
SO SIOUX CITY  SUNNY     24   7  48 NW21G29   30.29R WCI   9
COLUMBUS       SUNNY     23   3  42 W18       30.33R WCI   9
ALBION         PTSUNNY   22   2  42 NW17      30.31R WCI   7
OMAHA EPPLEY   PTSUNNY   25   7  46 NW17G26   30.32R WCI  12
OFFUTT AFB     MOSUNNY   25   8  47 NW16      30.32R WCI  13
MILLARD        CLOUDY    25   7  45 NW15G22   30.33R WCI  13
LINCOLN        NOT AVBL
NEBRASKA CITY  CLOUDY    25   4  42 NW15      30.32S WCI  12
BEATRICE       PTSUNNY   26   8  46 N17       30.34R WCI  13
FALLS CITY     CLOUDY    25   8  48 NW13      30.33R WCI  14

...NORTHERN KANSAS...

CITY           SKY/WX    TMP DP  RH WIND       PRES   REMARKS
GOODLAND       LGT SNOW  16   9  74 N13       30.28R WCI   2
HILL CITY      PTSUNNY   22  13  68 N8        30.36R WCI  12
NORTON         MOCLDY    19  10  68 NW13      30.34R WCI   7
PHILLIPSBURG   MOSUNNY   25  16  68 NW10      30.37R WCI  15
SMITH CENTER   SUNNY     23  12  63 NW12      30.37R WCI  12
BELOIT         SUNNY     25  12  58 NW10      30.36S WCI  15
RUSSELL        CLOUDY    25  17  72 N12       30.33R WCI  14
CONCORDIA      NOT AVBL
SALINA         PTSUNNY   27  20  75 N13       30.36R WCI  16
TOPEKA         CLOUDY    28  19  69 N9        30.35S WCI  19



USA.gov is the U.S. government's official web portal to all federal, state and local government web resources and services.